Regional Weather Roundup
Issued by NWS

Home | Current Version | Previous Version | Graphics & Text | Print | Product List | Glossary On
Versions: 1 2 3 4 5 6 7 8 9 10 11 12 13 14 15 16 17 18 19 20 21 22 23 24 25 26 27 28 29 30 31 32 33 34 35 36 37 38 39 40 41 42 43 44 45 46 47 48 49 50
000
ASUS43 KFSD 290410
RWRSD

WEATHER ROUNDUP FOR SOUTH DAKOTA
NATIONAL WEATHER SERVICE SIOUX FALLS SD
1100 PM CDT THU MAY 28 2015

NOTE: "FAIR" INDICATES FEW OR NO CLOUDS BELOW 12,000 FEET WITH NO
SIGNIFICANT WEATHER AND/OR OBSTRUCTIONS TO VISIBILITY.


SDZ001>005-009-010-012>017-290500-
NORTHWEST AND NORTH CENTRAL SOUTH DAKOTA

CITY           SKY/WX    TMP DP  RH WIND       PRES   REMARKS
BUFFALO          N/A     57  54  89 NW5       29.96R
FAITH            N/A     59  53  80 NW13      29.94R
MOBRIDGE       CLOUDY    65  62  90 NW9       29.86R
$$

SDZ012>016-024>037-041>051-057-063-072>074-290500-
SOUTHWEST AND SOUTH CENTRAL SOUTH DAKOTA

CITY           SKY/WX    TMP DP  RH WIND       PRES   REMARKS
RAPID CTY ARPT CLOUDY    57  49  74 NW15      29.97R
PIERRE         CLOUDY    61  58  90 W7        29.87R
CUSTER         CLOUDY    51  43  74 NW6       30.08R
ELLSWORTH AFB  CLEAR     55  51  85 NW8       29.98R
PHILIP         CLOUDY    59  57  93 W10       29.93R
PINE RIDGE     CLOUDY    55  52  89 S3        30.01R
SPEARFISH      MOCLDY    55  50  82 W12       30.05S
WINNER         MOCLDY    65  59  81 W13       29.89R
$$

SDZ004>011-016>023-039-040-290500-
NORTHEAST SOUTH DAKOTA

CITY           SKY/WX    TMP DP  RH WIND       PRES   REMARKS
ABERDEEN       CLOUDY    63  59  87 E10       29.86F
WATERTOWN      MOCLDY    67  57  70 S9        29.87R
BROOKINGS      MOCLDY    66  55  68 S14       29.90R
SISSETON         N/A     61  60  97 N12G26    29.89R
$$

SDZ017-020-022-023-036>040-048>070-290500-
SOUTHEAST SOUTH DAKOTA

CITY           SKY/WX    TMP DP  RH WIND       PRES   REMARKS
SIOUX FALLS    CLOUDY    67  61  81 S9        29.89S
HURON            N/A    N/A N/A N/A MISG      29.86R
CHAMBERLAIN    CLOUDY    64  59  84 CALM      29.87R
MITCHELL       CLOUDY    71  63  75 SE13      29.85R
YANKTON        MOCLDY    68  63  83 SE10      29.86F
$$

ABBREVIATIONS USED IN REMARKS
   TC - TEMPERATURE IN CELSIUS
  WCI - WIND CHILL INDEX
   HX - HEAT INDEX
  VSB - VISIBILITY



USA.gov is the U.S. government's official web portal to all federal, state and local government web resources and services.